Date,TemperatureHighF,TemperatureAvgF,TemperatureLowF,DewpointHighF,DewpointAvgF,DewpointLowF,HumidityHigh,HumidityAvg,HumidityLow,PressureMaxIn,PressureMinIn,WindSpeedMaxMPH,WindSpeedAvgMPH,GustSpeedMaxMPH,PrecipitationSumIn
2013-3-1,28.9,24.9,20.6,21.7,19.0,15.4,89,78,68,30.43,30.28,15,9,20,0.00
2013-3-2,36.3,25.1,10.3,26.3,19.4,8.0,91,79,61,30.42,30.14,7,3,8,0.00
2013-3-3,40.1,32.3,25.1,33.5,27.5,22.6,91,83,75,30.15,29.74,13,6,15,0.00
2013-3-4,39.6,33.5,27.8,31.7,28.6,21.7,94,83,65,30.08,29.68,13,6,17,0.00
2013-3-5,32.3,27.0,22.8,22.3,19.7,16.4,82,74,64,30.45,30.06,19,11,27,0.00
2013-3-6,38.6,27.5,19.4,25.5,20.4,15.6,86,75,56,30.49,30.28,12,5,14,0.00
2013-3-7,51.2,34.7,23.1,33.4,26.6,19.6,88,74,49,30.32,30.11,13,8,18,0.00
2013-3-8,55.4,39.8,28.7,41.7,33.1,25.3,96,78,59,30.21,29.92,11,6,15,0.27
2013-3-9,56.9,44.8,34.0,53.6,43.1,32.8,97,94,85,29.92,29.53,19,8,21,0.17
2013-3-10,34.2,26.5,21.6,32.6,25.1,20.1,96,94,92,30.02,29.71,20,14,23,0.01
2013-3-11,33.4,22.7,16.8,22.0,17.7,13.1,94,81,62,30.08,29.95,13,6,18,0.01
2013-3-12,33.3,25.7,14.1,25.7,20.5,11.2,95,81,70,30.40,30.08,12,5,19,0.00
2013-3-13,35.3,23.9,11.6,27.1,18.6,9.6,93,81,69,30.51,30.30,7,2,9,0.00
2013-3-14,57.2,39.6,28.0,46.3,33.6,22.6,95,79,65,30.29,30.09,7,2,8,0.00
2013-3-15,56.8,43.4,30.6,47.8,38.9,29.3,95,85,66,30.08,29.73,11,4,13,0.00
2013-3-16,39.3,30.8,26.1,37.7,26.8,22.8,94,85,77,30.22,29.87,18,10,22,0.00
2013-3-17,44.2,33.0,23.8,34.3,26.9,19.8,94,79,62,30.19,29.77,11,7,14,0.00
2013-3-18,36.9,32.5,25.9,32.6,23.6,17.4,96,72,48,30.10,29.75,14,6,23,0.07
2013-3-19,50.0,32.0,20.2,30.9,20.9,15.2,83,65,36,30.38,30.09,15,5,17,0.00
2013-3-20,35.1,24.3,15.8,17.4,12.2,6.9,80,61,41,30.46,30.15,12,7,16,0.00
2013-3-21,25.8,22.4,20.2,19.0,15.3,13.2,82,74,67,30.16,30.03,8,5,11,0.00
2013-3-26,43.3,31.6,12.3,24.7,21.1,10.2,91,66,45,30.44,30.28,7,3,8,0.00
2013-3-27,51.5,36.8,23.0,33.1,27.0,19.7,89,69,47,30.32,30.20,12,5,16,0.00
2013-3-28,58.2,42.4,25.6,36.6,31.1,23.9,95,68,39,30.28,30.15,6,2,8,0.00
2013-3-29,69.2,51.7,27.5,42.3,34.6,25.0,93,57,28,30.23,30.03,13,6,18,0.00
2013-3-30,64.3,54.1,45.9,55.3,46.1,36.6,97,77,43,30.07,29.89,14,5,20,0.36
2013-3-31,56.6,45.8,31.9,42.7,34.7,26.5,95,70,33,30.17,29.93,19,7,20,0.03